Content
SEND FEEDBACK

Daily
Averages
Monthly
Summary
United States of America

EARTH CITY, MISSOURI


Home > North America > United States > Missouri
Elevation: 476 feet     Latitude: 38 46N     Longitude: 090 30W

WEATHER
 
SELECT A DAY
Number of Records: 208,273;   Date Range: 1/1/95 - 12/18/14
 
SHARE

PRINT THIS DATA

[ ← Previous Day ]
WEATHER ALMANAC - FEBRUARY 14, 2013
[ Next Day → ]
[ °C ]   °F
Weather ElementAverageHighLow
Temperature46.8 °F57 °F (1:51 pm)39.9 °F (6:51 am)
Dewpoint30.1 °F32 °F (10:51 am)28 °F (10:51 pm)
Humidity53.4 %68 % (6:51 am)37 % (1:51 pm)
Barometer29.94 in30.08 in (11:51 pm)29.82 in (3:51 am)
Wind Speed10.7 mph17.3 mph (3:51 pm)
Wind Gust24.2 mph (3:51 pm)
Weather ElementAverage
Visibility10 mi
Wind DirectionWNW (283.5 °)

Weather ElementTotal
Precipitation---
Heating Degree Days16.6 (Base 65)
Averaged from 23 records on February 14, 2013
WEATHER CONDITIONS BREAKOUT
WIND DIRECTION BREAKOUT
WEATHER BY HOUR - FEBRUARY 14, 2013
[ °C ]   °F
Local TimeTemperatureDewpointHumidityBarometerVisibilityWind DirectionWind SpeedGust SpeedPrecipitationEventsConditions
1:51 AM41.0 °F30.0 °F65 %29.83 in10.0 miSW (230°)11.5 mphMostly Cloudy
2:51 AM42.8 °F30.2 °F61 %29.83 in10.0 miSW (230°)10.4 mphMostly Cloudy
3:51 AM42.1 °F30.0 °F62 %29.82 in10.0 miSW (230°)10.4 mphMostly Cloudy
4:51 AM41.0 °F30.2 °F65 %29.82 in10.0 miWSW (250°)9.2 mphScattered Clouds
5:51 AM41.0 °F30.2 °F65 %29.82 in10.0 miWSW (250°)11.5 mphPartly Cloudy
6:51 AM39.9 °F30.0 °F68 %29.86 in10.0 miWSW (250°)10.4 mphScattered Clouds
7:51 AM42.1 °F30.0 °F62 %29.90 in10.0 miWest (260°)12.7 mphMostly Cloudy
8:51 AM46.0 °F30.0 °F54 %29.92 in10.0 miWest (280°)12.7 mphScattered Clouds
9:51 AM50.0 °F30.9 °F48 %29.93 in10.0 miWest (280°)11.5 mphScattered Clouds
10:51 AM51.1 °F32.0 °F48 %29.94 in10.0 miWNW (300°)12.7 mph21.9 mphScattered Clouds
11:51 AM54.0 °F32.0 °F43 %29.94 in10.0 miWNW (300°)13.8 mph23.0 mphScattered Clouds
12:51 PM55.9 °F32.0 °F40 %29.93 in10.0 miWNW (290°)13.8 mph20.7 mphScattered Clouds
1:51 PM57.0 °F30.9 °F37 %29.92 in10.0 miWNW (300°)9.2 mph19.6 mphMostly Cloudy
2:51 PM55.9 °F30.0 °F37 %29.94 in10.0 miWNW (300°)15.0 mph21.9 mphMostly Cloudy
3:51 PM54.0 °F28.9 °F38 %29.96 in10.0 miNW (310°)17.3 mph24.2 mphMostly Cloudy
4:51 PM52.0 °F30.0 °F43 %29.97 in10.0 miNW (320°)15.0 mph24.2 mphMostly Cloudy
5:51 PM48.0 °F30.0 °F50 %30.01 in10.0 miNW (320°)11.5 mphMostly Cloudy
6:51 PM46.0 °F30.9 °F56 %30.04 in10.0 miWNW (300°)5.8 mphMostly Cloudy
7:51 PM45.0 °F30.0 °F56 %30.06 in10.0 miWNW (300°)5.8 mphMostly Cloudy
8:51 PM43.0 °F30.0 °F60 %30.06 in10.0 miWNW (290°)8.1 mphMostly Cloudy
9:51 PM43.0 °F28.9 °F58 %30.06 in10.0 miNW (310°)8.1 mphMostly Cloudy
10:51 PM44.1 °F28.0 °F53 %30.07 in10.0 miNW (310°)6.9 mphMostly Cloudy
11:51 PM41.0 °F28.0 °F60 %30.08 in10.0 miNW (310°)3.5 mphMostly Cloudy
Hourly data recorded from KSTL, located miles away from Earth City, Missouri







STORIES FROM OUR PARTNERS